sat.trackr.live / text

‹ back to catalog

DONGPO 02

NORAD 53452 · 2022-098J

PAYLOAD ACTIVE UNKNOWN

§ Identity

Operator
Country
PRC
Launch date
2022-08-10
Launch site
TAISC
Launch vehicle
Mass (kg)
RCS (m²)

External: N2YO · Heavens-Above · Gunter

§ Orbital elements

Epoch: 2026-05-25T04:52:13.643616Z

Period
91.72 min
Inclination
97.5485°
Eccentricity
0.0001519
Mean motion
15.69995610 rev/d
Perigee alt
357.9 km
Apogee alt
359.9 km
Semi-major
6,737.0 km
B*
7.1471e-4
RAAN
274.4877°
Arg perigee
86.7326°
Mean anomaly
273.4109°
Rev number
21,118

§ Raw data

DONGPO 021 53452U 22098J   26145.20293569  .00086359  00000+0  71471-3 0  99972 53452  97.5485 274.4877 0001519  86.7326 273.4109 15.69995610211186

JSON: /api/v1/satellites/53452 · /tle

For live sub-satellite position, see the globe view (requires WebGL).

§ Visibility from observer

Set your observer location to see the next 7 days of passes ≥ 10°. The values pass through the URL so the page stays shareable.

No JS? Fill the form by hand. The geolocation button needs JavaScript.

§ Radio — SatNOGS DB

ModeDescriptionDownlinkUplink
FM Jillin Mysterious Pip 1.616 GHz

1 transmitter · refreshed weekly from db.satnogs.org